• In Deutschland
  • Länderverzeichnis
  • Für 7 Tage
  • Wassertemperatur
  • Satellitenkarten
  • Wetterkarte
  • Widgets
  • user-avatar
    Anmelden

    Stündliche Wetter Chien

    Heute, 21 November, Dienstag

    Zeit Temperatur Niederschläge Wind Luftdruck Luftfeuchtigkeit
    00:00 +23°C° 0,1 mm 0 m/S 740 mmHg 98%
    01:00 +22°C° 0,1 mm 0 m/S 739 mmHg 98%
    02:00 +22°C° 0,1 mm 0 m/S 739 mmHg 99%
    03:00 +22°C° 0 mm 0 m/S 739 mmHg 99%
    04:00 +22°C° 0 mm 0 m/S 739 mmHg 99%
    05:00 +22°C° 0 mm 0 m/S 739 mmHg 99%
    06:00 +23°C° 0 mm 0 m/S 740 mmHg 93%
    07:00 +25°C° 0 mm 0 m/S 740 mmHg 88%
    08:00 +26°C° 0 mm 0 m/S 740 mmHg 82%
    09:00 +28°C° 0,1 mm 0 m/S 740 mmHg 72%
    10:00 +32°C° 0,1 mm 1 m/S 740 mmHg 62%
    11:00 +34°C° 0,1 mm 1 m/S 739 mmHg 51%
    12:00 +34°C° 0,1 mm 1 m/S 739 mmHg 51%
    13:00 +34°C° 0,1 mm 1 m/S 738 mmHg 51%
    14:00 +34°C° 0,1 mm 1 m/S 738 mmHg 51%
    15:00 +32°C° 0,8 mm 1 m/S 738 mmHg 62%
    16:00 +30°C° 0,8 mm 1 m/S 738 mmHg 72%
    17:00 +28°C° 0,8 mm 1 m/S 738 mmHg 83%
    18:00 +27°C° 1 mm 1 m/S 739 mmHg 87%
    19:00 +26°C° 1 mm 1 m/S 740 mmHg 91%
    20:00 +25°C° 1 mm 1 m/S 740 mmHg 95%
    21:00 +25°C° 0,2 mm 1 m/S 740 mmHg 95%
    22:00 +25°C° 0,2 mm 1 m/S 740 mmHg 96%
    23:00 +25°C° 0,2 mm 1 m/S 740 mmHg 97%

    Morgen, 22 November, Mittwoch

    Zeit Temperatur Niederschläge Wind Luftdruck Luftfeuchtigkeit
    00:00 +25°C° 0,1 mm 1 m/S 740 mmHg 97%
    01:00 +25°C° 0,1 mm 1 m/S 739 mmHg 98%
    02:00 +22°C° 0,1 mm 0 m/S 739 mmHg 98%
    03:00 +24°C° 0,1 mm 1 m/S 739 mmHg 98%
    04:00 +24°C° 0,1 mm 1 m/S 739 mmHg 98%
    05:00 +24°C° 0,1 mm 1 m/S 739 mmHg 99%
    06:00 +25°C° 0 mm 1 m/S 740 mmHg 94%
    07:00 +26°C° 0 mm 1 m/S 740 mmHg 90%
    08:00 +27°C° 0 mm 1 m/S 740 mmHg 86%
    09:00 +29°C° 0,1 mm 1 m/S 740 mmHg 77%
    10:00 +31°C° 0,1 mm 1 m/S 740 mmHg 68%
    11:00 +33°C° 0,1 mm 1 m/S 740 mmHg 60%
    12:00 +32°C° 1,1 mm 1 m/S 739 mmHg 66%
    13:00 +31°C° 1,1 mm 1 m/S 738 mmHg 72%
    14:00 +30°C° 1,1 mm 1 m/S 737 mmHg 78%
    15:00 +29°C° 2,5 mm 1 m/S 738 mmHg 83%
    16:00 +28°C° 2,5 mm 1 m/S 738 mmHg 88%
    17:00 +26°C° 2,5 mm 1 m/S 738 mmHg 93%
    18:00 +26°C° 0,6 mm 1 m/S 739 mmHg 94%
    19:00 +25°C° 0,6 mm 1 m/S 739 mmHg 95%
    20:00 +25°C° 0,6 mm 1 m/S 740 mmHg 95%
    21:00 +25°C° 0 mm 1 m/S 740 mmHg 96%
    22:00 +25°C° 0 mm 1 m/S 740 mmHg 97%
    23:00 +24°C° 0 mm 1 m/S 739 mmHg 97%

    übermorgen, 23 November, Donnerstag

    Zeit Temperatur Niederschläge Wind Luftdruck Luftfeuchtigkeit
    00:00 +24°C° 0 mm 1 m/S 739 mmHg 98%
    01:00 +24°C° 0 mm 1 m/S 739 mmHg 98%
    02:00 +24°C° 0 mm 1 m/S 738 mmHg 99%
    03:00 +24°C° 0 mm 1 m/S 739 mmHg 99%
    04:00 +24°C° 0 mm 1 m/S 739 mmHg 99%
    05:00 +24°C° 0 mm 1 m/S 739 mmHg 99%
    06:00 +24°C° 0 mm 1 m/S 740 mmHg 96%
    07:00 +25°C° 0 mm 1 m/S 740 mmHg 93%
    08:00 +26°C° 0 mm 1 m/S 741 mmHg 90%
    09:00 +28°C° 0,1 mm 1 m/S 740 mmHg 81%
    10:00 +30°C° 0,1 mm 1 m/S 740 mmHg 73%
    11:00 +32°C° 0,1 mm 1 m/S 740 mmHg 64%
    12:00 +32°C° 0,4 mm 1 m/S 739 mmHg 64%
    13:00 +32°C° 0,4 mm 1 m/S 739 mmHg 63%
    14:00 +32°C° 0,4 mm 1 m/S 738 mmHg 63%
    15:00 +30°C° 1,7 mm 1 m/S 738 mmHg 73%
    16:00 +28°C° 1,7 mm 1 m/S 738 mmHg 83%
    17:00 +26°C° 1,7 mm 1 m/S 738 mmHg 92%
    18:00 +26°C° 0,8 mm 1 m/S 739 mmHg 93%
    19:00 +26°C° 0,8 mm 1 m/S 740 mmHg 94%
    20:00 +25°C° 0,8 mm 1 m/S 741 mmHg 95%
    21:00 +25°C° 0,3 mm 1 m/S 741 mmHg 96%
    22:00 +25°C° 0,3 mm 1 m/S 741 mmHg 96%
    23:00 +25°C° 0,3 mm 1 m/S 741 mmHg 96%

    24 November, Freitag

    Zeit Temperatur Niederschläge Wind Luftdruck Luftfeuchtigkeit
    00:00 +24°C° 0 mm 1 m/S 740 mmHg 97%
    01:00 +24°C° 0 mm 1 m/S 739 mmHg 97%
    02:00 +24°C° 0 mm 1 m/S 739 mmHg 97%
    03:00 +24°C° 0 mm 1 m/S 739 mmHg 98%
    04:00 +24°C° 0 mm 1 m/S 739 mmHg 98%
    05:00 +22°C° 0 mm 0 m/S 739 mmHg 98%
    06:00 +25°C° 0 mm 1 m/S 740 mmHg 94%
    07:00 +26°C° 0 mm 1 m/S 740 mmHg 90%
    08:00 +27°C° 0 mm 1 m/S 741 mmHg 85%
    09:00 +29°C° 0 mm 1 m/S 741 mmHg 77%
    10:00 +31°C° 0 mm 1 m/S 740 mmHg 68%
    11:00 +32°C° 0 mm 1 m/S 740 mmHg 60%
    12:00 +32°C° 0,8 mm 1 m/S 739 mmHg 64%
    13:00 +32°C° 0,8 mm 1 m/S 739 mmHg 68%
    14:00 +31°C° 0,8 mm 1 m/S 738 mmHg 72%
    15:00 +30°C° 1 mm 1 m/S 738 mmHg 78%
    16:00 +28°C° 1 mm 1 m/S 738 mmHg 84%
    17:00 +27°C° 1 mm 1 m/S 739 mmHg 90%
    18:00 +27°C° 0,5 mm 1 m/S 739 mmHg 92%
    19:00 +26°C° 0,5 mm 1 m/S 740 mmHg 94%
    20:00 +25°C° 0,5 mm 1 m/S 740 mmHg 96%
    21:00 +25°C° 0,2 mm 1 m/S 740 mmHg 96%
    22:00 +25°C° 0,2 mm 1 m/S 740 mmHg 97%
    23:00 +25°C° 0,2 mm 1 m/S 740 mmHg 98%

    25 November, Samstag

    Zeit Temperatur Niederschläge Wind Luftdruck Luftfeuchtigkeit
    00:00 +25°C° 0 mm 1 m/S 740 mmHg 98%
    01:00 +24°C° 0 mm 1 m/S 739 mmHg 98%
    02:00 +24°C° 0 mm 1 m/S 739 mmHg 98%
    03:00 +24°C° 0 mm 1 m/S 739 mmHg 99%
    04:00 +24°C° 0 mm 1 m/S 739 mmHg 99%
    05:00 +24°C° 0 mm 1 m/S 740 mmHg 99%
    06:00 +25°C° 0 mm 1 m/S 740 mmHg 95%
    07:00 +26°C° 0 mm 1 m/S 741 mmHg 92%
    08:00 +27°C° 0 mm 1 m/S 741 mmHg 88%
    09:00 +28°C° 0 mm 1 m/S 741 mmHg 81%
    10:00 +30°C° 0 mm 1 m/S 740 mmHg 73%
    11:00 +31°C° 0 mm 1 m/S 740 mmHg 65%
    12:00 +31°C° 0,4 mm 1 m/S 739 mmHg 65%
    13:00 +31°C° 0,4 mm 1 m/S 739 mmHg 66%
    14:00 +32°C° 0,4 mm 1 m/S 738 mmHg 66%
    15:00 +30°C° 1,5 mm 1 m/S 738 mmHg 74%
    16:00 +29°C° 1,5 mm 1 m/S 739 mmHg 82%
    17:00 +27°C° 1,5 mm 1 m/S 739 mmHg 90%
    18:00 +26°C° 0,2 mm 1 m/S 739 mmHg 92%
    19:00 +26°C° 0,2 mm 1 m/S 740 mmHg 94%
    20:00 +25°C° 0,2 mm 1 m/S 740 mmHg 96%
    21:00 +25°C° 0,1 mm 1 m/S 740 mmHg 96%
    22:00 +25°C° 0,1 mm 1 m/S 740 mmHg 97%
    23:00 +25°C° 0,1 mm 1 m/S 740 mmHg 98%

    26 November, Sonntag

    Zeit Temperatur Niederschläge Wind Luftdruck Luftfeuchtigkeit
    00:00 +25°C° 0,4 mm 1 m/S 740 mmHg 98%
    01:00 +24°C° 0,4 mm 1 m/S 739 mmHg 98%
    02:00 +24°C° 0,4 mm 1 m/S 739 mmHg 99%
    03:00 +24°C° 0,1 mm 1 m/S 739 mmHg 99%
    04:00 +24°C° 0,1 mm 1 m/S 739 mmHg 99%
    05:00 +24°C° 0,1 mm 1 m/S 740 mmHg 99%
    06:00 +25°C° 0 mm 1 m/S 740 mmHg 96%
    07:00 +26°C° 0 mm 1 m/S 741 mmHg 94%
    08:00 +26°C° 0 mm 1 m/S 741 mmHg 91%
    09:00 +28°C° 0 mm 1 m/S 741 mmHg 83%
    10:00 +30°C° 0 mm 1 m/S 741 mmHg 75%
    11:00 +31°C° 0 mm 1 m/S 740 mmHg 66%
    12:00 +32°C° 0,2 mm 1 m/S 740 mmHg 65%
    13:00 +32°C° 0,2 mm 1 m/S 739 mmHg 64%
    14:00 +32°C° 0,2 mm 1 m/S 738 mmHg 63%
    15:00 +30°C° 1,6 mm 1 m/S 739 mmHg 73%
    16:00 +29°C° 1,6 mm 1 m/S 739 mmHg 82%
    17:00 +27°C° 1,6 mm 1 m/S 739 mmHg 91%
    18:00 +26°C° 0,4 mm 1 m/S 740 mmHg 93%
    19:00 +26°C° 0,4 mm 1 m/S 740 mmHg 95%
    20:00 +25°C° 0,4 mm 1 m/S 741 mmHg 97%
    21:00 +25°C° 0,2 mm 1 m/S 741 mmHg 97%
    22:00 +25°C° 0,2 mm 1 m/S 741 mmHg 98%
    23:00 +24°C° 0,2 mm 1 m/S 741 mmHg 98%
    Mehr zeigen